カタログに戻る

PRAETORIAN SDA_506

運用中PO
NORAD 100064·PAYLOAD·🇺🇸 United States

打ち上げ Jul 16, 2026 から Vandenberg Space Force Base

Loading…

次のパス (今後24時間)

TLE

最新Source: Space-Track

元期: Sep 14, 2026, 23:00 UTC

1 A0064U 26163F   26257.95893365  .00000181  00000-0  14601-3 0  9993
2 A0064  81.4773 254.9692 0017125  55.1212 305.1553 13.86057504  8336

AllMySatでPRAETORIAN SDA_506をリアルタイム追跡

Download on the App Store